"Pseudo-MPEC" for P10LcVo

Created 2019 Jan 23 21:18:17 UT using Find_Orb

Click here for an explanation of pseudo-MPECs

 
 Astrometry: 
     P10LcVo  C2019 01 08;RPe#j`:5Fo(r4W:?.?fL/te;kj8TD:owjZAstrometryT4tHJ@=F51
     P10LcVo  C2019 01 08q%kw5fb*1,BeQ]4('n6B^@cVLUajbf;AX9VxUa/b]NmtbO0erRI8F51
     P10LcVo  C2019 01 08gaJbs=?qrZZZ=b'8$VnhAfAEXjXv;S+\o/EhL:DRNYok:aoq/^luF51
     P10LcVo  C2019 01 08?#iULxToJL/H$7[N(v5RmEj9tI+(LU2k2U!_SU.W(=Y,.;4kkJw8F51
     P10LcVo ^C2019 01 09.50094208 24 18.003+09 59 45.71   ~19MI 20.24GVNEOCP568
     P10LcVo ^C2019 01 09.50212108 24 17.939+09 59 45.52   ~19MI 20.24GVNEOCP568
     P10LcVo ^C2019 01 09.50330108 24 17.874+09 59 45.33   ~19MI 20.31GVNEOCP568
     P10LcVo 9C2019 01 11%kkbXFcqyr%0Tvj;^_OOPyLh9sF]0%Uqb3=%^qQc',9KGx0vM`PTG40
     P10LcVo 9C2019 01 11fX+AOG/Fm=W1redacted;EcJpdH';PAk*$wQZ*6uukv*kR/4cTwgG40
     P10LcVo KC2019 01 11[H$_y/s)FsEAnjS\@+k.Hy`i#Y=YSx[W]4g03)=.Q.L*DGiiUkh;106
     P10LcVo KC2019 01 11H`e%wF-Y65hBCnLA;p0KaR@vx8k:B9!.rR.?`RP;tr9iyZ^IEcdw106
     P10LcVo  C2019 01 11.27504 08 22 43.39 +09 55 05.7    ~1B7I 20.1 GVNEOCPI52
     P10LcVo  C2019 01 11.27881 08 22 43.30 +09 55 04.8    ~1B7I 20.8 GVNEOCPI52
     P10LcVo  C2019 01 11.28428 08 22 42.91 +09 55 04.6    ~1B7I 20.4 GVNEOCPI52
     P10LcVo  C2019 01 11.28874 08 22 42.70 +09 55 03.3    ~1B7I 20.6 GVNEOCPI52
     P10LcVo KC2019 01 12dEEL=wZ67:ih0c:IRm]kp(T[Z^B/ZNyEsDqjv,'3FpU0YJYfqqWhL27
     P10LcVo KC2019 01 12C*svOlu!\qa=*a3:rGd+3[jI0ULC%q@0jq96l:McUjG=X;5%%@8;L27
     P10LcVo KC2019 01 12*qb%[-vtChiJ+Do,;MHPR'KDBHZa/KR9vnr1click!n`y6OIuM(iL27
     P10LcVo HC2019 01 12A.FUIU[UI1IACK6)J2s_l^(]B5-FVomfrHGMK2wm/H]8Lc$E?dkW691
     P10LcVo HC2019 01 12otVb:)d;VjNS]]UtP'7T'Wrr4?GhgeO\:_xTh=pE-DRD[.r15/f@691
     P10LcVo HC2019 01 12EVL[peZJ.Q@S8_\mTe]=+y^Dhm!%j5p\+5pUCGPP_H6u))B@FM@*691
     P10LcVo  C2019 01 12.48054 08 21 37.85 +09 52 05.3    ~1CCI 20.0 GVNEOCPI52
     P10LcVo  C2019 01 12.48481 08 21 37.67 +09 52 05.0    ~1CCI 19.9 GVNEOCPI52
     P10LcVo  C2019 01 12.48927 08 21 37.36 +09 52 04.4    ~1CCI 19.9 GVNEOCPI52
     P10LcVo 1C2019 01 12MVkca'3qJZ!!sI7HtQH;Ru5\Gw4Ns/UO!?7(RbRgc-:fx=lsHnhDQ62
     P10LcVo 1C2019 01 12M4tWimHK0hereXAMe[9dx`7!.%!R\8Cjq,kOO^w!^-Y%ZD;MbmgyQ62
     P10LcVo 1C2019 01 12L+4h#t3RIr)J06)jJ(_wj,ejU;H%i=AoU8YOKeSwn#.*aR.ik+3wQ62
     P10LcVo 1C2019 01 13/wS$yb2lBwE?k'OcY],$B@VGQ.2W@u.MTa5Js'lp2;)9jFM'-QJMQ62
     P10LcVo 1C2019 01 13j3x=g`,kY4^*npEwcjD6KQBOX)F6S^wK%:l?!]xiA(]kN[/rYyCdQ62
     P10LcVo KC2019 01 1421m0\L$NkYfCHaL,STgbaId]v:p([MlyKFD*fBSNn_[w\Z8+xu\8L01
     P10LcVo KC2019 01 14@+Ek,DPrf)4B[6HXr(qWZF9rlE6@3\:\,$\Ql?Qa3pcEBforEy%=L01
     P10LcVo HC2019 01 15KJCD,)f?SX^+8Er..=PSZ)2Qv/`iwi:!28a;M[n+tSCsK+(i[5#d691
     P10LcVo HC2019 01 15.]xcI7J?,w!\O.YHYd*y@YB3Y-[=p;YB,^a85mrk!+:4JD7#pA:^691
     P10LcVo HC2019 01 15gwZs5AfK^YwOZ\in,h_0,V+Gn`o31gKx+LT'8%eqn+^8SE9/fI:3691
     P10LcVo KC2019 01 17Vdh;6vB(!ayW0^oH8n(Q#nT\qrr!^v1IM9:oB;1uLAZuirjK#msW691
     P10LcVo KC2019 01 17h$okvB_6k'+VWw6R@.Bkej?v!N$_Vb(41M0S2xm+UJR`osIk45]1691
     P10LcVo KC2019 01 1721`uIrvHf[#6x/PG\yl!h(8Ss$B#GN62DP-n]phexplanation?M691
     P10LcVo  C2019 01 17.27775 08 17 12.89 +09 41 24.6    ~1H8I 20.3 GVNEOCPI52
     P10LcVo  C2019 01 17.28270 08 17 12.61 +09 41 23.7    ~1H8I 19.7 GVNEOCPI52
     P10LcVo  C2019 01 17.28723 08 17 12.40 +09 41 22.9    ~1H8I 19.7 GVNEOCPI52
     P10LcVo  C2019 01 17.29836 08 17 11.73 +09 41 22.0    ~1H8I 20.6 GVNEOCPI52

Station data:
(106) Črni Vrh  (N45.945908 E14.071100)  Slovenia.  Observer J. Skvarč. 0.6-m
   f/3.3 Deltagraph + CCD.
(568) Mauna Kea  (N19.826116 W155.472200)  US/Hawaii.
(691) Steward Observatory, Kitt Peak - Spacewatch  (N31.962174 W111.600327)
   US/Arizona.  Observer J. V. Scotti. 0.9-m f/3 reflector + CCD.
(F51) Pan-STARRS 1, Haleakala  (N20.707235 W156.255910)  US/Hawaii.
   Observers N. Primak, A. Schultz, S. Watters, J. Thiel, T. Goggia. Measurer
   PS1 Science Consortium. 1.8-m Ritchey-Chrétien + CCD.
(G40) Slooh.com Canary Islands Observatory  (N28.299720 W16.508260)  Canary
   Islands (Spain).  Observers G. Gašparović, Y. Chen. 0.43-m f/6.8 Corrected
   Dall-Kirkham + CCD.
(I52) Steward Observatory, Mt. Lemmon Station  (N32.442547 W110.788920)
   US/Arizona.  Observers B. M. Africano, E. J. Christensen, G. A. Farneth,
   D. C. Fuls, A. R. Gibbs, A. D. Grauer, H. Groeller, J. A. Johnson, R. A.
   Kowalski, S. M. Larson, G. J. Leonard, R. L. Seaman, F. C. Shelly. 1.0-m
   reflector + CCD.
(L01) Višnjan Observatory, Tičan  (N45.290900 E13.749300)  Croatia.
   Observers K. Korlević, E. Pettarin. Measurer E. Pettarin. 1.0-m f/2.9
   reflector + CCD.
(L27) 29PREMOTE Observatory, Dauban  (N43.999847 E5.647040)  France.
(Q62) iTelescope Observatory, Siding Spring  (S31.273289 E149.064420)
   Australia/NSW. 0.50-m f/6.8 astrograph + CCD + focal reducer, 0.70-m f/6.6
   astrograph + CCD.

Orbital elements:  P10LcVo
   Perihelion 2018 Jan 8.288996 +/- 5.51 TT =  6:56:09 (JD 2458126.788996)
Epoch 2019 Jan 17.0 TT = JDT 2458500.5                        AutoNEOCP
M  64.53618090 +/- 1.0              (J2000 ecliptic)
n   0.17269007 +/- 0.000481         Peri.  119.33130 +/- 0.9
a   3.19367804 +/- 0.00593          Node   280.55379 +/- 0.11
e   0.1641827 +/- 0.00406           Incl.   17.80084 +/- 0.10
P   5.71                   H 16.1   G  0.15   U  7.7  
q 2.66933118 +/- 0.00806    Q 3.71802489 +/- 0.0198
From 41 observations 2019 Jan. 8-17; mean residual 0".42
Residuals in arcseconds: 
190108 F51  .13-  .09+    190111 I52  .07+  .16-    190113 Q62  .21-  .60+    
190108 F51  .03-  .01-    190112 L27  .24-  .32+    190114 L01  .38+  1.2-    
190108 F51  .04-  .00     190112 L27  .32-  .11-    190114 L01  .71+  .79-    
190108 F51  .01-  .05+    190112 L27  .86-  .04-    190115 691  .03-  .34+    
190109 568  .11+  .05-    190112 691  .24-  .33+    190115 691  .38+  .20-    
190109 568  .11+  .05-    190112 691  .12+  .17+    190115 691  .17-  .05+    
190109 568  .10+  .05-    190112 691  .39-  .21+    190117 691  .22-  .20+    
190111 G40  .97+  .19-    190112 I52  .47-  .05+    190117 691  .13+  .40+    
190111 G40  .67-  .29-    190112 I52  .37+  .38+    190117 691  .06-  .09-    
190111 106  .01+  .78+    190112 I52  .56-  .45+    190117 I52  .39-  .26+    
190111 106  .97+  1.5-    190112 Q62  .12+  .28+    190117 I52  .33-  .05-    
190111 I52  .92-  .17+    190112 Q62  .22+  .24+    190117 I52  .40+  .30-    
190111 I52  .83+  .16-    190112 Q62  .16+  .31-    190117 I52  .05-  .14+    
190111 I52  .47-  .47+    190113 Q62  .01-  .53+    

Ephemerides (geocentric):
Date (UTC) HH   RA              Dec         delta   r     elong  mag " sig PA
---- -- -- --  -------------   -----------  ------ ------ -----  --- ---- ---
2019 01 23 21  08 11 02.748   +09 29 53.09  2.0827 3.0562 169.7 20.4 1.23  12
2019 01 23 22  08 11 00.420   +09 29 49.38  2.0828 3.0563 169.7 20.4 1.24  12
2019 01 23 23  08 10 58.093   +09 29 45.67  2.0829 3.0563 169.7 20.4 1.25  13
2019 01 24 00  08 10 55.765   +09 29 41.97  2.0829 3.0564 169.7 20.4 1.26  13
2019 01 24 01  08 10 53.438   +09 29 38.28  2.0830 3.0565 169.7 20.4 1.27  13
2019 01 24 02  08 10 51.112   +09 29 34.60  2.0831 3.0565 169.7 20.4 1.28  13
2019 01 24 03  08 10 48.785   +09 29 30.92  2.0832 3.0566 169.7 20.4 1.30  13
2019 01 24 04  08 10 46.459   +09 29 27.26  2.0832 3.0567 169.7 20.4 1.31  13
2019 01 24 05  08 10 44.134   +09 29 23.60  2.0833 3.0567 169.7 20.4 1.32  13
2019 01 24 06  08 10 41.809   +09 29 19.95  2.0834 3.0568 169.7 20.4 1.33  13
2019 01 24 07  08 10 39.484   +09 29 16.30  2.0835 3.0569 169.6 20.4 1.34  13
2019 01 24 08  08 10 37.159   +09 29 12.67  2.0835 3.0569 169.6 20.4 1.35  13
2019 01 24 09  08 10 34.835   +09 29 09.04  2.0836 3.0570 169.6 20.4 1.36  14
2019 01 24 10  08 10 32.511   +09 29 05.42  2.0837 3.0571 169.6 20.4 1.37  14
2019 01 24 11  08 10 30.188   +09 29 01.81  2.0838 3.0571 169.6 20.4 1.38  14
2019 01 24 12  08 10 27.865   +09 28 58.21  2.0839 3.0572 169.6 20.4 1.39  14
2019 01 24 13  08 10 25.542   +09 28 54.61  2.0840 3.0573 169.6 20.4 1.40  14
2019 01 24 14  08 10 23.220   +09 28 51.02  2.0840 3.0573 169.6 20.4 1.41  14
2019 01 24 15  08 10 20.898   +09 28 47.44  2.0841 3.0574 169.6 20.4 1.43  14
2019 01 24 16  08 10 18.577   +09 28 43.87  2.0842 3.0575 169.6 20.4 1.44  14
2019 01 24 17  08 10 16.255   +09 28 40.31  2.0843 3.0575 169.6 20.4 1.45  14
2019 01 24 18  08 10 13.935   +09 28 36.75  2.0844 3.0576 169.5 20.4 1.46  14
2019 01 24 19  08 10 11.615   +09 28 33.20  2.0845 3.0577 169.5 20.4 1.47  15
2019 01 24 20  08 10 09.295   +09 28 29.67  2.0845 3.0577 169.5 20.4 1.48  15
2019 01 24 21  08 10 06.975   +09 28 26.13  2.0846 3.0578 169.5 20.4 1.49  15
2019 01 24 22  08 10 04.656   +09 28 22.61  2.0847 3.0579 169.5 20.4 1.51  15
2019 01 24 23  08 10 02.338   +09 28 19.09  2.0848 3.0579 169.5 20.4 1.52  15
2019 01 25 00  08 10 00.019   +09 28 15.58  2.0849 3.0580 169.5 20.4 1.53  15
2019 01 25 01  08 09 57.702   +09 28 12.08  2.0850 3.0581 169.5 20.4 1.54  15
2019 01 25 02  08 09 55.384   +09 28 08.59  2.0851 3.0581 169.5 20.4 1.55  15
2019 01 25 03  08 09 53.068   +09 28 05.11  2.0851 3.0582 169.4 20.4 1.56  15
2019 01 25 04  08 09 50.751   +09 28 01.63  2.0852 3.0583 169.4 20.4 1.57  16
2019 01 25 05  08 09 48.435   +09 27 58.16  2.0853 3.0583 169.4 20.4 1.59  16
2019 01 25 06  08 09 46.120   +09 27 54.70  2.0854 3.0584 169.4 20.4 1.60  16
2019 01 25 07  08 09 43.805   +09 27 51.25  2.0855 3.0585 169.4 20.4 1.61  16
2019 01 25 08  08 09 41.490   +09 27 47.80  2.0856 3.0585 169.4 20.4 1.62  16
2019 01 25 09  08 09 39.176   +09 27 44.36  2.0857 3.0586 169.4 20.4 1.63  16
2019 01 25 10  08 09 36.862   +09 27 40.94  2.0858 3.0587 169.3 20.4 1.65  16
2019 01 25 11  08 09 34.549   +09 27 37.51  2.0859 3.0587 169.3 20.4 1.66  16
2019 01 25 12  08 09 32.236   +09 27 34.10  2.0860 3.0588 169.3 20.4 1.67  16
2019 01 25 13  08 09 29.924   +09 27 30.69  2.0861 3.0589 169.3 20.4 1.68  16
2019 01 25 14  08 09 27.612   +09 27 27.29  2.0862 3.0589 169.3 20.4 1.69  16
2019 01 25 15  08 09 25.301   +09 27 23.90  2.0863 3.0590 169.3 20.4 1.71  17
2019 01 25 16  08 09 22.990   +09 27 20.52  2.0863 3.0591 169.3 20.4 1.72  17
2019 01 25 17  08 09 20.680   +09 27 17.15  2.0864 3.0591 169.2 20.4 1.73  17
2019 01 25 18  08 09 18.370   +09 27 13.78  2.0865 3.0592 169.2 20.4 1.74  17
2019 01 25 19  08 09 16.061   +09 27 10.42  2.0866 3.0592 169.2 20.4 1.76  17
2019 01 25 20  08 09 13.752   +09 27 07.07  2.0867 3.0593 169.2 20.4 1.77  17